Dewpoint
-15 -16 -16 -16 -15 -15 -14 -12 -10 -10 -10 -12 -13 -13 -13 -12 -11 -10 -10 -10 -9 -8 -7 -7 -7 -7 -7 -6 -5 -5 -5 -5 -5 -5 -4 -4 -4 -3
-15 -15 -16 -16 -16 -16 -14 -11 -11 -10 -10 -11 -12 -12 -11 -10 -10 -9 -10 -9 -8 -9 -8 -8 -8 -8 -7 -7 -6 -6 -5 -5 -5 -4 -4 -4 -4 -3
-15 -15 -16 -17 -16 -14 -14 -13 -12 -11 -11 -11 -10 -10 -9 -9 -9 -9 -9 -10 -9 -10 -9 -9 -8 -8 -7 -7 -6 -6 -6 -5 -5 -5 -5 -5 -4 -4
-14 -15 -16 -15 -14 -14 -13 -12 -11 -11 -10 -9 -9 -9 -9 -9 -9 -8 -9 -9 -11 -11 -10 -9 -8 -8 -7 -7 -6 -6 -6 -6 -6 -5 -5 -5 -5 -4
-14 -15 -15 -14 -13 -12 -11 -10 -10 -9 -9 -9 -9 -9 -9 -8 -8 -8 -10 -10 -11 -11 -10 -9 -8 -8 -7 -7 -7 -7 -6 -7 -6 -6 -6 -6 -6 -5
-13 -13 -13 -13 -12 -11 -10 -10 -9 -9 -9 -8 -10 -10 -8 -7 -8 -10 -11 -11 -10 -11 -10 -11 -9 -8 -8 -8 -7 -7 -7 -7 -6 -6 -6 -6 -6 -6
-15 -14 -12 -12 -12 -9 -8 -8 -8 -9 -9 -10 -8 -7 -7 -9 -10 -11 -10 -9 -11 -9 -9 -13 -9 -11 -11 -10 -9 -8 -7 -7 -7 -6 -6 -6 -6 -6
-14 -15 -13 -11 -11 -10 -9 -8 -9 -8 -8 -8 -8 -8 -8 -10 -10 -10 -11 -9 -8 -10 -9 -12 -10 -11 -11 -11 -9 -8 -7 -7 -7 -6 -6 -6 -6 -6
-15 -12 -11 -10 -10 -9 -9 -9 -9 -9 -8 -9 -8 -9 -10 -10 -11 -10 -9 -9 -9 -10 -10 -11 -11 -11 -11 -11 -10 -8 -8 -9 -7 -6 -6 -6 -6 -6
-11 -11 -10 -10 -10 -9 -9 -9 -10 -10 -9 -10 -10 -10 -10 -10 -8 -8 -9 -10 -11 -10 -9 -9 -10 -11 -10 -10 -12 -11 -10 -7 -6 -6 -6 -6 -6 -6
-11 -11 -10 -10 -10 -9 -9 -10 -9 -10 -11 -11 -10 -10 -8 -9 -9 -10 -10 -10 -10 -10 -10 -10 -10 -10 -11 -11 -11 -10 -10 -9 -8 -7 -6 -6 -6 -6
-11 -10 -10 -10 -9 -9 -9 -9 -10 -11 -11 -11 -11 -11 -10 -11 -9 -10 -10 -10 -10 -10 -10 -10 -10 -10 -10 -10 -10 -11 -10 -9 -8 -8 -7 -6 -6 -6
-10 -10 -10 -10 -9 -9 -9 -10 -10 -10 -10 -10 -11 -11 -11 -11 -10 -10 -10 -10 -11 -11 -10 -10 -11 -11 -11 -10 -10 -10 -9 -9 -8 -7 -7 -7 -6 -6
-10 -10 -10 -9 -9 -9 -10 -11 -10 -10 -11 -11 -11 -11 -11 -11 -10 -10 -10 -10 -10 -10 -10 -9 -10 -10 -10 -10 -10 -10 -9 -9 -7 -7 -6 -6 -6 -6
-10 -10 -9 -10 -10 -11 -12 -11 -10 -11 -11 -11 -11 -11 -11 -10 -10 -10 -10 -10 -10 -10 -10 -10 -9 -9 -10 -10 -9 -9 -8 -8 -7 -6 -6 -6 -6 -6
-11 -10 -10 -11 -12 -12 -12 -12 -12 -11 -11 -11 -11 -10 -10 -10 -10 -10 -10 -10 -10 -10 -10 -10 -9 -9 -9 -9 -8 -8 -7 -7 -6 -6 -6 -7 -7 -6
-10 -12 -13 -13 -13 -12 -12 -12 -11 -11 -11 -10 -10 -10 -10 -10 -10 -10 -10 -10 -10 -9 -10 -10 -9 -9 -8 -8 -8 -8 -7 -7 -6 -6 -6 -6 -7 -6
-11 -12 -13 -12 -12 -12 -12 -11 -11 -10 -10 -10 -9 -10 -10 -10 -10 -10 -9 -9 -10 -9 -9 -9 -9 -9 -9 -8 -8 -7 -8 -7 -7 -6 -6 -6 -6 -7
-12 -12 -12 -12 -12 -12 -11 -11 -10 -10 -9 -9 -9 -9 -9 -9 -9 -9 -9 -9 -9 -9 -9 -9 -8 -8 -8 -8 -10 -8 -7 -8 -7 -6 -6 -6 -6 -6
-13 -13 -13 -12 -12 -11 -10 -10 -10 -9 -9 -9 -9 -9 -9 -9 -9 -9 -8 -9 -9 -9 -9 -9 -9 -8 -8 -7 -8 -9 -9 -7 -6 -6 -6 -6 -6 -6
-13 -13 -12 -11 -10 -10 -10 -10 -9 -9 -9 -9 -9 -8 -8 -9 -8 -8 -8 -8 -9 -9 -9 -9 -8 -8 -8 -8 -8 -7 -9 -7 -6 -6 -6 -6 -5 -5
-12 -11 -11 -10 -10 -10 -9 -9 -9 -9 -8 -9 -8 -8 -8 -8 -8 -8 -8 -8 -8 -8 -8 -8 -8 -8 -8 -8 -7 -7 -7 -7 -7 -6 -6 -5 -5 -5
-11 -11 -10 -10 -9 -9 -9 -9 -9 -8 -8 -8 -8 -8 -8 -8 -8 -8 -8 -8 -8 -8 -8 -8 -8 -8 -8 -7 -7 -7 -7 -7 -7 -7 -6 -5 -5 -4
Wind_Speed
14 16 16 16 18 19 21 21 21 26 29 23 21 16 28 31 30 30 34 33 31 34 34 35 36 37 37 38 38 37 37 37 37 38 37 38 38 41
16 16 17 18 19 21 21 21 22 26 34 29 29 27 28 30 32 30 33 32 33 34 35 35 37 34 36 37 37 37 38 38 38 38 38 38 39 40
16 17 19 20 21 22 22 24 24 24 32 35 31 29 29 33 31 32 33 39 35 37 36 34 34 34 36 37 37 38 38 38 38 38 38 39 39 40
17 19 20 19 22 23 22 21 24 26 29 37 33 33 33 31 35 34 33 35 36 34 32 35 35 36 36 36 37 37 37 38 38 39 40 40 40 40
19 20 21 21 23 23 22 23 25 26 29 33 39 35 34 34 36 30 37 32 32 34 34 35 36 36 34 34 35 36 36 37 39 40 40 40 40 40
19 20 22 23 23 22 24 25 24 28 29 32 38 41 35 34 32 34 34 33 34 39 37 40 33 34 34 36 36 35 35 35 36 37 37 38 38 39
20 21 21 22 25 23 23 25 27 30 34 37 37 37 36 36 34 33 34 36 44 36 39 40 32 43 41 37 35 33 31 33 34 36 37 38 39 40
21 22 22 22 20 20 22 23 25 30 34 37 40 36 39 34 34 35 43 40 37 40 27 48 40 45 43 39 34 34 33 31 32 34 35 36 38 38
22 22 21 20 21 22 23 24 26 30 29 34 37 33 36 36 41 42 39 40 43 45 39 45 42 47 41 43 39 35 29 25 28 29 31 32 34 36
19 20 21 22 22 23 27 31 34 33 29 30 32 33 36 38 37 36 39 42 43 39 31 37 45 43 43 46 39 21 27 25 27 30 33 34 35 37
18 20 21 23 23 23 28 34 34 34 33 27 28 32 31 30 30 29 35 36 41 42 40 35 34 43 48 46 35 31 35 34 30 29 30 33 34 36
19 20 20 21 22 25 29 33 37 36 35 34 33 31 27 28 24 24 29 33 39 45 37 30 40 34 32 37 36 42 38 36 35 33 31 32 34 35
22 23 24 22 25 27 29 32 33 29 32 33 29 28 30 29 26 26 27 29 36 40 39 32 39 39 30 41 47 43 41 39 39 35 33 35 35 35
24 26 28 27 29 29 29 25 24 26 25 24 28 31 30 30 31 32 31 30 31 36 36 31 34 35 38 43 45 46 42 39 38 36 37 42 40 34
25 26 28 29 27 26 22 22 21 20 23 27 29 30 31 34 34 32 31 31 32 30 30 28 30 31 32 38 43 46 41 40 35 36 43 43 41 36
26 30 30 24 20 20 20 20 20 20 22 27 29 31 34 33 32 30 33 33 35 35 28 28 28 26 31 33 36 43 38 36 41 42 43 43 39 38
27 29 22 20 21 21 20 20 21 23 25 27 30 32 32 31 31 31 32 34 33 35 36 32 30 29 29 31 34 35 32 39 39 41 41 41 40 39
23 19 19 20 21 21 22 24 25 26 27 29 30 30 31 32 33 32 32 32 34 35 35 35 35 36 34 31 24 24 35 37 40 40 38 37 40 40
16 18 19 20 21 22 24 26 29 28 29 31 31 30 31 32 31 32 33 32 34 35 35 36 32 32 33 35 44 29 32 34 38 41 37 36 37 39
15 17 19 20 22 24 27 29 30 29 31 31 30 30 30 30 32 33 33 33 33 35 38 34 30 32 33 35 41 40 30 34 36 40 41 37 35 34
17 18 19 21 24 26 28 28 28 31 31 31 30 30 30 32 32 33 34 32 29 32 33 36 35 29 30 32 33 37 35 28 27 30 31 31 32 35
17 20 22 24 25 27 27 27 31 31 31 31 29 28 32 33 32 32 33 32 31 31 34 34 33 30 31 29 32 34 34 32 28 23 22 25 25 22
19 23 25 25 26 26 27 29 30 30 30 30 30 31 36 33 31 30 30 28 29 29 30 34 33 29 29 29 29 31 32 30 30 32 29 23 14 12
Wind_Direction
303 304 305 302 297 295 294 292 290 296 298 300 299 277 287 291 296 295 297 304 300 297 298 297 296 296 294 292 291 290 288 286 283 280 279 275 273 269
303 301 298 298 295 295 295 289 285 283 287 290 296 296 296 295 293 299 301 299 292 296 299 297 295 295 293 291 291 289 288 286 285 282 280 278 275 271
300 299 299 299 299 296 293 292 288 287 287 294 297 300 298 299 304 302 296 295 304 298 297 296 296 296 294 293 290 289 287 285 285 283 280 279 275 273
298 297 298 297 294 298 298 292 289 290 292 295 299 301 304 305 302 298 300 298 302 301 299 298 298 295 294 293 291 289 286 285 284 283 282 279 276 273
299 297 296 295 297 298 292 294 295 296 295 295 299 303 301 304 305 301 306 301 297 297 300 298 300 298 299 297 293 290 287 286 283 282 280 278 276 273
299 298 298 298 298 296 291 295 298 297 299 298 299 304 305 306 309 307 305 303 302 305 306 308 302 300 300 297 294 291 289 286 285 283 282 280 277 275
299 299 299 294 292 297 297 299 300 299 300 303 301 303 305 309 308 308 304 304 307 312 304 313 303 309 316 311 305 298 295 291 287 285 283 281 279 275
300 299 297 298 298 292 295 296 298 300 302 301 301 301 303 305 305 304 304 308 304 310 306 308 313 314 315 314 304 297 294 290 288 287 284 282 279 276
301 301 298 296 296 298 299 301 295 299 295 298 297 299 299 300 300 305 306 303 301 302 308 306 313 312 318 318 316 304 295 295 292 291 288 288 285 280
299 297 297 303 302 306 305 303 305 306 307 299 296 297 296 299 303 304 301 299 302 304 303 293 313 313 316 312 321 317 325 309 301 295 293 291 289 287
299 298 302 302 304 304 305 304 307 306 305 299 293 297 299 298 297 299 300 303 301 303 308 304 310 306 313 317 327 325 321 318 318 314 305 301 296 292
305 299 304 303 303 306 305 307 307 306 306 307 305 304 301 302 301 296 297 295 294 302 312 302 307 312 313 312 311 319 324 322 322 321 319 314 309 298
311 310 305 303 305 307 306 300 301 307 303 301 306 303 308 309 309 304 298 294 294 293 310 306 302 307 295 301 312 316 320 321 322 323 325 325 315 306
308 306 307 309 310 306 303 305 305 304 305 309 306 309 312 313 314 311 310 308 305 300 312 311 301 306 304 299 300 314 318 321 322 323 326 327 324 317
305 308 306 307 308 306 311 311 310 314 309 309 313 314 317 319 319 322 322 318 312 314 318 318 311 307 303 298 299 308 308 320 326 323 320 322 325 324
313 313 309 311 309 311 316 318 315 313 313 311 317 321 324 325 325 328 323 326 322 323 325 324 321 316 308 305 306 302 308 299 321 316 316 321 326 327
312 309 321 316 317 319 318 319 322 325 326 326 323 324 326 328 327 329 328 326 315 320 324 331 331 325 318 313 302 308 311 314 314 315 320 319 326 328
313 319 315 316 314 318 321 326 331 333 333 329 328 329 328 328 328 329 328 327 321 324 322 328 328 326 326 318 309 300 308 314 323 326 323 313 319 333
321 316 318 316 318 322 325 328 331 333 333 333 331 332 332 330 329 331 332 329 326 325 327 327 318 325 316 314 321 319 313 324 327 322 318 317 315 328
324 321 321 323 326 327 330 331 332 333 333 333 333 332 332 332 332 333 332 328 327 326 323 324 320 325 316 313 314 322 339 325 325 320 321 323 323 327
328 330 332 333 333 332 332 333 333 334 334 332 333 334 335 335 332 332 333 331 323 329 324 326 331 327 323 326 317 318 329 337 334 325 326 328 327 327
336 339 341 339 337 335 335 336 335 337 338 337 337 333 332 335 332 330 332 331 333 333 330 328 333 338 331 327 325 324 332 339 344 344 348 341 326 321
343 342 342 342 339 338 338 336 337 337 339 339 338 334 340 337 335 333 331 332 334 330 329 331 338 341 337 336 329 335 343 341 349 353 359 0 345 334
Height
1486 1484 1483 1480 1478 1476 1474 1471 1467 1459 1453 1452 1451 1449 1445 1440 1436 1431 1426 1422 1418 1415 1411 1407 1403 1399 1394 1390 1386 1382 1379 1377 1375 1374 1372 1371 1369 1369
1482 1480 1478 1476 1473 1471 1468 1466 1463 1458 1448 1448 1444 1442 1439 1434 1429 1424 1420 1416 1411 1407 1402 1398 1394 1389 1385 1381 1377 1373 1370 1366 1364 1362 1360 1359 1358 1357
1477 1475 1473 1471 1468 1465 1463 1460 1456 1453 1445 1439 1438 1435 1431 1426 1421 1418 1413 1408 1401 1398 1394 1389 1385 1381 1376 1372 1368 1363 1359 1356 1353 1351 1349 1347 1346 1345
1473 1471 1468 1465 1463 1460 1457 1454 1451 1447 1442 1431 1431 1427 1424 1420 1415 1410 1405 1401 1394 1390 1385 1380 1377 1371 1367 1362 1357 1353 1348 1345 1342 1340 1337 1335 1334 1333
1468 1466 1463 1460 1457 1455 1452 1448 1445 1441 1436 1429 1421 1420 1417 1413 1407 1402 1398 1392 1388 1383 1377 1372 1367 1360 1356 1352 1347 1343 1338 1335 1331 1328 1325 1323 1321 1320
1464 1461 1458 1455 1452 1449 1445 1442 1439 1434 1430 1424 1417 1412 1409 1405 1402 1396 1389 1386 1379 1374 1368 1361 1358 1351 1346 1341 1336 1331 1327 1324 1320 1317 1314 1311 1309 1307
1458 1456 1453 1450 1446 1443 1440 1436 1433 1429 1424 1418 1412 1407 1402 1398 1394 1389 1383 1377 1370 1366 1360 1349 1349 1341 1334 1329 1324 1320 1317 1314 1310 1307 1303 1300 1297 1295
1453 1450 1447 1444 1441 1439 1435 1432 1430 1424 1418 1413 1407 1402 1396 1392 1388 1383 1376 1369 1360 1359 1353 1339 1340 1330 1326 1320 1316 1312 1308 1304 1300 1296 1293 1289 1286 1283
1448 1445 1442 1440 1436 1432 1429 1426 1423 1420 1415 1409 1401 1398 1391 1387 1382 1375 1369 1364 1356 1350 1348 1334 1331 1320 1317 1310 1305 1301 1297 1293 1289 1286 1283 1279 1275 1272
1444 1441 1437 1434 1431 1427 1423 1418 1414 1410 1406 1403 1397 1391 1386 1380 1375 1370 1363 1356 1348 1343 1342 1332 1323 1312 1306 1301 1297 1293 1288 1284 1281 1278 1274 1269 1265 1260
1439 1436 1432 1429 1425 1423 1418 1411 1406 1402 1398 1394 1389 1384 1379 1375 1371 1364 1357 1351 1340 1334 1333 1326 1316 1307 1298 1289 1286 1284 1281 1278 1272 1268 1263 1259 1254 1248
1433 1430 1427 1424 1421 1417 1412 1406 1399 1394 1389 1384 1379 1375 1372 1367 1363 1360 1354 1346 1339 1327 1325 1321 1312 1308 1289 1281 1280 1276 1271 1268 1263 1259 1254 1249 1243 1237
1427 1424 1421 1419 1415 1411 1407 1401 1395 1390 1384 1379 1373 1369 1364 1360 1355 1352 1347 1342 1334 1324 1319 1316 1306 1301 1298 1279 1269 1268 1264 1258 1253 1248 1244 1239 1233 1227
1424 1419 1415 1412 1408 1404 1399 1394 1390 1385 1379 1374 1369 1363 1358 1353 1348 1343 1338 1332 1327 1319 1311 1309 1301 1296 1288 1278 1267 1259 1256 1251 1246 1240 1234 1227 1221 1215
1420 1415 1410 1406 1401 1396 1391 1388 1385 1380 1375 1370 1364 1359 1354 1347 1341 1335 1329 1324 1317 1311 1306 1301 1295 1289 1284 1275 1265 1256 1249 1242 1239 1232 1226 1219 1211 1203
1414 1408 1404 1400 1395 1392 1387 1383 1380 1376 1372 1366 1360 1353 1347 1341 1335 1330 1323 1316 1309 1302 1300 1295 1289 1284 1276 1270 1263 1251 1246 1240 1232 1227 1220 1210 1202 1195
1408 1402 1398 1394 1390 1387 1383 1378 1375 1371 1366 1361 1355 1348 1342 1336 1330 1325 1318 1311 1305 1297 1289 1286 1282 1276 1270 1263 1255 1247 1241 1234 1228 1220 1212 1202 1193 1187
1402 1399 1395 1391 1388 1384 1379 1374 1370 1366 1361 1356 1350 1343 1337 1331 1324 1319 1314 1307 1299 1292 1285 1280 1273 1267 1260 1255 1252 1244 1237 1230 1221 1212 1205 1196 1185 1179
1399 1396 1392 1389 1385 1381 1376 1371 1366 1362 1357 1351 1345 1339 1333 1327 1321 1314 1308 1302 1294 1288 1282 1276 1271 1266 1257 1247 1238 1239 1233 1223 1213 1204 1199 1191 1181 1172
1396 1393 1389 1386 1382 1378 1373 1368 1363 1358 1353 1347 1341 1336 1330 1323 1316 1310 1304 1297 1290 1284 1277 1273 1268 1263 1257 1249 1237 1227 1226 1219 1211 1200 1190 1183 1176 1167
1394 1390 1387 1383 1379 1375 1371 1365 1360 1354 1349 1343 1337 1331 1326 1319 1312 1307 1300 1294 1289 1282 1275 1269 1264 1259 1253 1245 1237 1227 1219 1216 1209 1198 1188 1179 1168 1159
1391 1388 1384 1381 1376 1372 1367 1362 1356 1351 1345 1339 1333 1328 1322 1316 1309 1303 1298 1291 1285 1279 1273 1267 1260 1254 1248 1243 1235 1226 1216 1208 1202 1195 1187 1181 1172 1162
1389 1386 1382 1377 1373 1368 1363 1358 1353 1347 1342 1336 1330 1324 1318 1312 1306 1300 1294 1289 1283 1277 1272 1264 1257 1252 1246 1240 1233 1224 1216 1207 1198 1188 1182 1177 1170 1165